• In Switzerland
  • List of Countries
  • For 7 days
  • Water Temperature
  • Satellite Maps
  • Weather Map
  • Weather Widgets
  • user-avatar
    Login

    Hourly Weather Thimphu

    Today, 25 February, Sunday

    Time Temperature Precipitation Wind Pressure Humidity
    00:00 +3°C° 0 mm 1 mps 523 mmHg 85%
    01:00 +2°C° 0.1 mm 1 mps 523 mmHg 85%
    02:00 +2°C° 0.1 mm 1 mps 523 mmHg 84%
    03:00 +2°C° 0.1 mm 1 mps 522 mmHg 83%
    04:00 +2°C° 0 mm 1 mps 522 mmHg 83%
    05:00 +1°C° 0 mm 1 mps 522 mmHg 83%
    06:00 +1°C° 0 mm 1 mps 522 mmHg 80%
    07:00 +3°C° 0 mm 1 mps 523 mmHg 70%
    08:00 +5°C° 0 mm 1 mps 525 mmHg 59%
    09:00 +8°C° 0 mm 1 mps 526 mmHg 49%
    10:00 +8°C° 0 mm 1 mps 526 mmHg 49%
    11:00 +8°C° 0 mm 2 mps 527 mmHg 48%
    12:00 +9°C° 0 mm 2 mps 527 mmHg 47%
    13:00 +9°C° 0.1 mm 2 mps 526 mmHg 51%
    14:00 +9°C° 0.1 mm 3 mps 525 mmHg 54%
    15:00 +8°C° 0.1 mm 3 mps 525 mmHg 57%
    16:00 +7°C° 0.3 mm 2 mps 524 mmHg 67%
    17:00 +5°C° 0.3 mm 2 mps 523 mmHg 77%
    18:00 +5°C° 0.3 mm 1 mps 522 mmHg 87%
    19:00 +4°C° 0.3 mm 1 mps 522 mmHg 87%
    20:00 +4°C° 0.3 mm 1 mps 522 mmHg 87%
    21:00 +4°C° 0.3 mm 1 mps 522 mmHg 88%
    22:00 +3°C° 0.2 mm 1 mps 522 mmHg 87%
    23:00 +3°C° 0.2 mm 1 mps 522 mmHg 87%

    Tomorrow, 26 February, Monday

    Time Temperature Precipitation Wind Pressure Humidity
    00:00 +3°C° 0.2 mm 1 mps 522 mmHg 86%
    01:00 +2°C° 0 mm 1 mps 521 mmHg 86%
    02:00 +2°C° 0 mm 1 mps 520 mmHg 85%
    03:00 +1°C° 0 mm 1 mps 520 mmHg 84%
    04:00 +1°C° 0 mm 1 mps 520 mmHg 82%
    05:00 -2°C° 0 mm 2 mps 520 mmHg 80%
    06:00 -2°C° 0 mm 2 mps 519 mmHg 77%
    07:00 +2°C° 0 mm 1 mps 521 mmHg 68%
    08:00 +4°C° 0 mm 1 mps 523 mmHg 59%
    09:00 +7°C° 0 mm 1 mps 525 mmHg 51%
    10:00 +8°C° 0 mm 1 mps 525 mmHg 49%
    11:00 +8°C° 0 mm 2 mps 526 mmHg 48%
    12:00 +9°C° 0 mm 2 mps 526 mmHg 46%
    13:00 +9°C° 0.1 mm 2 mps 525 mmHg 48%
    14:00 +8°C° 0.1 mm 2 mps 525 mmHg 51%
    15:00 +8°C° 0.1 mm 2 mps 524 mmHg 53%
    16:00 +6°C° 0.1 mm 2 mps 523 mmHg 62%
    17:00 +5°C° 0.1 mm 2 mps 522 mmHg 71%
    18:00 +4°C° 0.1 mm 1 mps 521 mmHg 80%
    19:00 +4°C° 0 mm 1 mps 522 mmHg 76%
    20:00 +2°C° 0 mm 2 mps 522 mmHg 73%
    21:00 +2°C° 0 mm 2 mps 522 mmHg 70%
    22:00 +1°C° 0 mm 2 mps 522 mmHg 66%
    23:00 +1°C° 0 mm 2 mps 522 mmHg 62%

    Day after tomorrow, 27 February, Tuesday

    Time Temperature Precipitation Wind Pressure Humidity
    00:00 +1°C° 0 mm 2 mps 522 mmHg 58%
    01:00 -1°C° 0 mm 2 mps 522 mmHg 55%
    02:00 -1°C° 0 mm 3 mps 521 mmHg 52%
    03:00 -1°C° 0 mm 3 mps 521 mmHg 49%
    04:00 -1°C° 0 mm 3 mps 521 mmHg 47%
    05:00 -1°C° 0 mm 3 mps 521 mmHg 45%
    06:00 -1°C° 0 mm 3 mps 521 mmHg 43%
    07:00 +3°C° 0 mm 2 mps 524 mmHg 39%
    08:00 +6°C° 0 mm 2 mps 526 mmHg 34%
    09:00 +11°C° 0 mm 1 mps 528 mmHg 30%
    10:00 +12°C° 0 mm 1 mps 529 mmHg 29%
    11:00 +13°C° 0 mm 2 mps 529 mmHg 29%
    12:00 +14°C° 0 mm 2 mps 529 mmHg 28%
    13:00 +13°C° 0 mm 2 mps 528 mmHg 33%
    14:00 +13°C° 0 mm 2 mps 527 mmHg 38%
    15:00 +13°C° 0 mm 2 mps 527 mmHg 44%
    16:00 +10°C° 0 mm 2 mps 525 mmHg 56%
    17:00 +8°C° 0 mm 1 mps 524 mmHg 68%
    18:00 +6°C° 0 mm 1 mps 522 mmHg 80%
    19:00 +5°C° 0 mm 1 mps 523 mmHg 79%
    20:00 +5°C° 0 mm 1 mps 523 mmHg 78%
    21:00 +4°C° 0 mm 1 mps 523 mmHg 78%
    22:00 +4°C° 0 mm 1 mps 523 mmHg 76%
    23:00 +4°C° 0 mm 1 mps 523 mmHg 74%

    28 February, Wednesday

    Time Temperature Precipitation Wind Pressure Humidity
    00:00 +3°C° 0 mm 1 mps 522 mmHg 72%
    01:00 +3°C° 0 mm 1 mps 522 mmHg 70%
    02:00 +3°C° 0 mm 1 mps 521 mmHg 68%
    03:00 +1°C° 0 mm 2 mps 521 mmHg 66%
    04:00 +1°C° 0 mm 2 mps 521 mmHg 63%
    05:00 +1°C° 0 mm 2 mps 521 mmHg 61%
    06:00 +1°C° 0 mm 2 mps 521 mmHg 59%
    07:00 +4°C° 0 mm 1 mps 523 mmHg 53%
    08:00 +7°C° 0 mm 1 mps 525 mmHg 48%
    09:00 +10°C° 0 mm 1 mps 527 mmHg 42%
    10:00 +11°C° 0 mm 1 mps 527 mmHg 43%
    11:00 +10°C° 0 mm 2 mps 527 mmHg 44%
    12:00 +12°C° 0 mm 2 mps 527 mmHg 45%
    13:00 +10°C° 0.1 mm 2 mps 526 mmHg 50%
    14:00 +10°C° 0.1 mm 2 mps 525 mmHg 55%
    15:00 +9°C° 0.1 mm 2 mps 524 mmHg 60%
    16:00 +8°C° 0 mm 2 mps 523 mmHg 69%
    17:00 +7°C° 0 mm 1 mps 522 mmHg 78%
    18:00 +6°C° 0 mm 1 mps 522 mmHg 87%
    19:00 +5°C° 0 mm 1 mps 522 mmHg 87%
    20:00 +5°C° 0 mm 1 mps 522 mmHg 88%
    21:00 +5°C° 0 mm 1 mps 523 mmHg 88%
    22:00 +5°C° 0 mm 1 mps 522 mmHg 86%
    23:00 +4°C° 0 mm 1 mps 522 mmHg 84%

    1 March, Thursday

    Time Temperature Precipitation Wind Pressure Humidity
    00:00 +4°C° 0 mm 1 mps 522 mmHg 83%
    01:00 +4°C° 0 mm 1 mps 521 mmHg 82%
    02:00 +3°C° 0 mm 1 mps 521 mmHg 80%
    03:00 +3°C° 0 mm 1 mps 520 mmHg 79%
    04:00 +3°C° 0 mm 1 mps 521 mmHg 78%
    05:00 +3°C° 0 mm 1 mps 521 mmHg 76%
    06:00 +2°C° 0 mm 1 mps 521 mmHg 75%
    07:00 +5°C° 0 mm 1 mps 522 mmHg 68%
    08:00 +7°C° 0 mm 1 mps 524 mmHg 60%
    09:00 +9°C° 0 mm 1 mps 526 mmHg 53%
    10:00 +10°C° 0 mm 1 mps 526 mmHg 53%
    11:00 +10°C° 0 mm 2 mps 526 mmHg 53%
    12:00 +10°C° 0 mm 2 mps 526 mmHg 53%
    13:00 +10°C° 0.1 mm 2 mps 525 mmHg 56%
    14:00 +10°C° 0.1 mm 2 mps 524 mmHg 59%
    15:00 +10°C° 0.1 mm 3 mps 523 mmHg 62%
    16:00 +8°C° 0.2 mm 2 mps 523 mmHg 70%
    17:00 +7°C° 0.2 mm 2 mps 522 mmHg 78%
    18:00 +6°C° 0.2 mm 1 mps 521 mmHg 87%
    19:00 +6°C° 0.1 mm 1 mps 521 mmHg 87%
    20:00 +6°C° 0.1 mm 1 mps 522 mmHg 88%
    21:00 +5°C° 0.1 mm 1 mps 522 mmHg 89%
    22:00 +5°C° 0.2 mm 1 mps 522 mmHg 88%
    23:00 +5°C° 0.2 mm 1 mps 522 mmHg 87%

    2 March, Friday

    Time Temperature Precipitation Wind Pressure Humidity
    00:00 +5°C° 0.2 mm 1 mps 522 mmHg 86%
    01:00 +5°C° 0.2 mm 1 mps 521 mmHg 86%
    02:00 +4°C° 0.2 mm 1 mps 521 mmHg 86%
    03:00 +4°C° 0.2 mm 1 mps 520 mmHg 86%
    04:00 +4°C° 0.1 mm 1 mps 520 mmHg 86%
    05:00 +4°C° 0.1 mm 1 mps 520 mmHg 86%
    06:00 +3°C° 0.1 mm 1 mps 520 mmHg 85%
    07:00 +5°C° 0.1 mm 1 mps 522 mmHg 79%
    08:00 +6°C° 0.1 mm 1 mps 523 mmHg 73%
    09:00 +8°C° 0.1 mm 1 mps 524 mmHg 67%
    10:00 +8°C° 0.2 mm 2 mps 524 mmHg 66%
    11:00 +8°C° 0.2 mm 2 mps 524 mmHg 64%
    12:00 +9°C° 0.2 mm 2 mps 524 mmHg 63%
    13:00 +8°C° 0.4 mm 2 mps 523 mmHg 66%
    14:00 +8°C° 0.4 mm 2 mps 522 mmHg 69%
    15:00 +7°C° 0.4 mm 2 mps 521 mmHg 72%
    16:00 +6°C° 0.3 mm 2 mps 521 mmHg 78%
    17:00 +5°C° 0.3 mm 2 mps 520 mmHg 83%
    18:00 +5°C° 0.3 mm 1 mps 520 mmHg 89%
    19:00 +5°C° 0.4 mm 1 mps 520 mmHg 89%
    20:00 +5°C° 0.4 mm 1 mps 520 mmHg 89%
    21:00 +4°C° 0.4 mm 1 mps 521 mmHg 89%
    22:00 +4°C° 0.3 mm 1 mps 521 mmHg 88%
    23:00 +4°C° 0.3 mm 1 mps 520 mmHg 88%
    Show more